Showing default

LEMUR-2 GRAM-E-SUE, 67370

Orbit data source: Space-Track

LEMUR-2 GRAM-E-SUE, 67370 is a payload satellite owned by Spire/Lux (US) in SSO that was launched on Sun, 11 Jan 2026 UTC via an FALCON 9 launch vehicle from the Air Force Western Test Range (AFWTR). Payload-class satellites include a variety of spacecraft equipped with specific instruments for various scientific and technological missions. These include communications satellites like Starlink; space stations such as the ISS; scientific satellites like the Hubble; Earth observation satellites from companies like Planet Labs, Umbra, and HawkEye 360; GPS; miniature CubeSats for education and research; and military/defense satellites.

Loading next visibility...
Identifier
67370, 2026-004H
Orbit
SSO
Country
Flag of USUS
Related business
Manufacturer
Spire/Glasgow
Mission
Operational Commercial Com/MetRO
Bus & Motor
CUBESAT 3U, Unknown motor
Mass
4.6 kg wet, 4.6 kg dry
Launch date (UTC)
2026-01-11 (8 months ago)
Launch vehicle
FALCON 9
Launch site
Air Force Western Test Range (AFWTR)
Object type
Payload
Rocket body
Debris
Shape & HBR
Box + 2 Pan, 0.3 m
Radar Cross Section
0.054 m², Medium (>0.1 m² and < 1m²)

Expand to show TLE details & history
Last TLE update: 12 hours ago

TLE from 12 hours ago
0 LEMUR-2 GRAM-E-SUE
1 67370U 26004H   26264.21760888  .00002851  00000-0  30927-3 0  9995
2 67370  97.8046 261.3225 0006923 175.1423 184.9862 14.88934101 37583
Epoch: 2026-09-21T05:13Z
TLE epoch observation values (Epoch: 2026-09-21T05:13:21.407Z)
Latitude
-0.00005°
Longitude
-177.11729°
Altitude
609.116 km
Speed
7.552 km/s
True Right ascension
17h 25m 17s
True Declination
0° 00' 00"
Sunlit
Object was in daylight at epoch
Visualization orbit readout
Latitude
Unknown
Longitude
Unknown
Altitude
Unknown
Speed
Unknown
Apparent Right ascension
Unknown
Apparent Declination
Unknown
Sunlit
N/A
Visualization observer readout
Local Sidereal Time
10:30:07
Azimuth
Unknown
Elevation
Unknown
Doppler factor
Unknown
Orbital elements
Apogee altitude
603.119 km
Perigee altitude
593.46 km
Semi-major axis
6,976.426 km
Eccentricity
0.00069
Inclination
97.8046°
RAAN
261.3225°
Arg. of periapsis
175.1423°
True anomaly
184.97931°
Mean anomaly
184.9862°
Eccentric anomaly
184.98275°
Mean motion
3.72472 °/min
Orbital period
96.65 mins
BSTAR
0.00030927
Loading maneuver chart data...
Computing Atmospheric mass density...
Loading historical data...
Loading historical data...
Loading historical data...
Loading historical data...
Loading historical data...
Loading historical data...
Loading historical data...

Documentation

Showing up to 5 results
|